Hourly Data Report for November 07, 2017

All times are specified in Local Standard Time (LST). Add 1 hour to adjust for Daylight Saving Time where and when it is observed.

DAUPHIN
MANITOBA

51°06'03.000" N
100°03'09.000" W
304.50 m
5040689
71036
YDN

Download Data

Hourly Data (November 2017)
Hourly Data Report for November 7, 2017
Temp Definition
°C
Dew Point Temp Definition
°C
Rel Hum Definition
%
Wind Dir Definition
10's deg

Wind Spd Definition
km/h
Visibility Definition
km
Stn Press Definition
kPa
Hmdx Definition


Wind Chill Definition


Weather Definition


TIME
00:00 Legend Double Dagger -13.0 -16.9 73 23 8 16.1 99.08   -18 LegendNANA
01:00 Legend Double Dagger -11.7 -14.5 80 24 22 16.1 99.06   -20 LegendNANA
02:00 Legend Double Dagger -12.3 -14.6 83 25 22 16.1 98.99   -21 LegendNANA
03:00 Legend Double Dagger -11.4 -15.0 75 26 18 16.1 98.98   -19 LegendNANA
04:00 Legend Double Dagger -11.1 -15.2 72 23 22 16.1 98.85   -20 LegendNANA
05:00 Legend Double Dagger -10.6 -14.9 71 25 28 16.1 98.76   -20 LegendNANA
06:00 Legend Double Dagger -9.6 -14.1 70 24 26 16.1 98.66   -18 LegendNANA
07:00 Legend Double Dagger -9.9 -13.9 73 25 28 16.1 98.57   -19 LegendNANA
08:00 Legend Double Dagger -9.6 -13.9 71 25 26 16.1 98.47   -18 LegendNANA
09:00 Legend Double Dagger -9.4 -13.5 72 25 26 16.1 98.38   -18 LegendNANA
10:00 Legend Double Dagger -9.3 -13.7 71 27 37 16.1 98.31   -19 LegendNANA
11:00 Legend Double Dagger -6.8 -12.4 65 26 28 16.1 98.24   -15 LegendNANA
12:00 Legend Double Dagger -7.2 -12.4 67 28 35 16.1 98.28   -16 LegendNANA
13:00 Legend Double Dagger -6.6 -11.3 69 28 43 16.1 98.22   -17 LegendNANA
14:00 Legend Double Dagger -7.6 -11.7 73 28 39 16.1 98.23   -17 LegendNANA
15:00 Legend Double Dagger -7.9 -11.9 73 27 32 16.1 98.21   -17 LegendNANA
16:00 Legend Double Dagger -8.2 -12.1 74 28 35 16.1 98.27   -18 LegendNANA
17:00 Legend Double Dagger -8.6 -12.1 76 28 32 16.1 98.33   -18 LegendNANA
18:00 Legend Double Dagger -8.8 -12.3 76 27 30 16.1 98.39   -18 LegendNANA
19:00 Legend Double Dagger -8.2 -11.4 78 28 28 16.1 98.44   -17 LegendNANA
20:00 Legend Double Dagger -7.7 -10.7 79 28 30 16.1 98.44   -17 LegendNANA
21:00 Legend Double Dagger -7.8 -10.7 80 28 28 16.1 98.45   -16 LegendNANA
22:00 Legend Double Dagger -7.3 -10.2 80 28 26 16.1 98.48   -15 LegendNANA
23:00 Legend Double Dagger -7.3 -10.0 81 29 26 16.1 98.52   -15 LegendNANA

Notes on Data Quality.

Legend

  • E = Estimated
  • M = Missing
  • NA = Not Available
  • ‡ = Partner data that is not subject to review by the National Climate Archives
Date modified: